Weather History for Kansas City International, MO

Change the Weather History Date:

Saturday, March 30, 2013

  Actual Average Record
Temperature  
Mean Temperature 58 °F 49 °F  
Max Temperature 66 °F 61 °F 82 °F (1986)
Min Temperature 49 °F 38 °F 17 °F (1964)
Degree Days  
Heating Degree Days 7 16  
Month to date heating degree days 824 631  
Since 1 July heating degree days 4556 4676  
Cooling Degree Days 0 0  
Month to date cooling degree days 0 0  
Year to date cooling degree days 0 0  
Growing Degree Days 7 (Base 50)    
Moisture  
Dew Point 46 °F    
Average Humidity 72    
Maximum Humidity 89    
Minimum Humidity 54    
Precipitation  
Precipitation T in 0.09 in 1.37 in (1904)
Month to date precipitation 1.95 2.27  
Year to date precipitation 4.84 4.80  
Snow  
Snow 0.00 in 0.10 in 7.50 in (1926)
Month to date snowfall 6.0 2.0  
Since 1 July snowfall 31.2 18.2  
Snow Depth 0.00 in    
Sea Level Pressure  
Sea Level Pressure 29.94 in    
Wind  
Wind Speed 7 mph (ESE)    
Max Wind Speed 14 mph    
Max Gust Speed 20 mph    
Visibility 10 miles    
Events Rain    
T = Trace of Precipitation, MM = Missing Value Source: NWS Daily Summary

Daily Weather History Graph

Daily Weather History Graph

Search for Another Location

Airport:

Trip Planner

Search our weather history database for the weather conditions in past years. The results will help you decide how hot, cold, wet, or windy it might be!

Date:

Astronomy

Mar. 30, 2013 Rise Set
Actual Time 7:06 AM CDT 7:41 PM CDT
Civil Twilight 6:39 AM CDT 8:08 PM CDT
Nautical Twilight 6:07 AM CDT 8:39 PM CDT
Astronomical Twilight 5:34 AM CDT 9:12 PM CDT
Moon 11:47 PM CDT (3/30) 9:03 AM CDT (3/30)
Length of Visible Light 13h 28m
Length of Day
12h 35m
Waning Gibbous, 86% of the Moon is Illuminated
Mar 30
Waning Gibbous
Apr 2
Last Quarter
Apr 10
New
Apr 18
First Quarter
Apr 25
Full

Hourly Weather History & Observations

Time (CDT) Temp. Dew Point Humidity Pressure Visibility Wind Dir Wind Speed Gust Speed Precip Events Conditions
12:53 AM 51.1 °F 36.0 °F 56% 30.09 in 10.0 mi ESE 9.2 mph - N/A   Scattered Clouds
1:53 AM 48.9 °F 36.0 °F 61% 30.07 in 10.0 mi SE 9.2 mph - N/A   Mostly Cloudy
2:53 AM 51.1 °F 39.0 °F 63% 30.06 in 10.0 mi SE 6.9 mph - N/A   Overcast
3:53 AM 51.1 °F 37.9 °F 61% 30.03 in 10.0 mi ESE 9.2 mph - N/A   Overcast
4:53 AM 51.1 °F 39.9 °F 66% 29.99 in 10.0 mi SE 11.5 mph - N/A   Overcast
5:53 AM 50.0 °F 39.9 °F 68% 29.98 in 10.0 mi SE 12.7 mph - N/A   Overcast
6:36 AM 50.0 °F 41.0 °F 71% 29.97 in 10.0 mi SE 11.5 mph - N/A   Overcast
6:53 AM 50.0 °F 42.1 °F 74% 29.96 in 10.0 mi SE 10.4 mph 19.6 mph N/A   Overcast
7:53 AM 51.1 °F 43.0 °F 74% 29.95 in 10.0 mi ESE 5.8 mph - N/A   Overcast
8:53 AM 53.1 °F 46.9 °F 80% 29.94 in 10.0 mi South 11.5 mph - 0.00 in Rain Light Rain
9:53 AM 54.0 °F 48.0 °F 80% 29.95 in 10.0 mi Calm Calm - 0.00 in   Overcast
10:53 AM 55.0 °F 48.9 °F 80% 29.96 in 10.0 mi ESE 3.5 mph - 0.00 in   Overcast
11:53 AM 54.0 °F 46.9 °F 77% 29.96 in 10.0 mi NNE 6.9 mph - N/A   Overcast
12:53 PM 54.0 °F 48.9 °F 83% 29.95 in 9.0 mi ESE 11.5 mph - 0.00 in   Overcast
1:22 PM 53.6 °F 48.2 °F 82% 29.94 in 7.0 mi SE 11.5 mph - N/A   Overcast
1:53 PM 57.0 °F 50.0 °F 77% 29.92 in 8.0 mi South 10.4 mph - N/A   Mostly Cloudy
2:53 PM 64.9 °F 52.0 °F 63% 29.88 in 10.0 mi Variable 5.8 mph - N/A   Mostly Cloudy
3:22 PM 62.6 °F 51.8 °F 68% 29.89 in 10.0 mi NW 6.9 mph - N/A   Overcast
3:34 PM 64.4 °F 51.8 °F 64% 29.89 in 10.0 mi NW 10.4 mph - N/A   Mostly Cloudy
3:53 PM 64.9 °F 48.9 °F 56% 29.88 in 10.0 mi North 11.5 mph - N/A   Scattered Clouds
4:53 PM 64.0 °F 50.0 °F 60% 29.86 in 10.0 mi NE 10.4 mph - N/A   Mostly Cloudy
5:53 PM 64.0 °F 50.0 °F 60% 29.86 in 10.0 mi ENE 5.8 mph - N/A   Scattered Clouds
6:53 PM 63.0 °F 50.0 °F 63% 29.86 in 10.0 mi ENE 4.6 mph - N/A   Scattered Clouds
7:53 PM 59.0 °F 48.9 °F 69% 29.88 in 10.0 mi East 4.6 mph - N/A   Scattered Clouds
8:53 PM 54.0 °F 46.9 °F 77% 29.89 in 10.0 mi SE 4.6 mph - N/A   Partly Cloudy
9:53 PM 55.9 °F 50.0 °F 80% 29.91 in 10.0 mi NE 6.9 mph - N/A   Mostly Cloudy
10:53 PM 54.0 °F 50.0 °F 86% 29.92 in 7.0 mi Calm Calm - N/A   Mostly Cloudy
11:53 PM 50.0 °F 46.9 °F 89% 29.92 in 4.0 mi NE 6.9 mph - N/A   Partly Cloudy